Farmington, MO

2:31 AM CST on December 10, 2019 (GMT -0600)
Farmington Regional

Weather History for KFAM - October, 2019

Change the Weather History Date:

Saturday, October 19, 2019

  Actual Average Record
Temperature  
Mean Temperature 58 °F -  
Max Temperature 70 °F 64 °F 86 °F (2005)
Min Temperature 46 °F 43 °F 30 °F (1996)
Degree Days  
Heating Degree Days 8    
Growing Degree Days 8 (Base 50)    
Moisture  
Dew Point 46 °F    
Average Humidity 69    
Maximum Humidity 96    
Minimum Humidity 42    
Precipitation  
Precipitation 0.00 in - - ()
Sea Level Pressure  
Sea Level Pressure 29.84 in    
Wind  
Wind Speed 5 mph (South)    
Max Wind Speed 9 mph    
Max Gust Speed -    
Visibility 10 miles    
Events      
Averages and records for this station are not official NWS values.
T = Trace of Precipitation, MM = Missing Value Source: NWS Daily Summary

Daily Weather History Graph

Daily Weather History Graph

Search for Another Location

Airport or City:

Astronomy

Oct. 19, 2019 Rise Set
Actual Time 7:13 AM CDT 6:19 PM CDT
Civil Twilight 6:47 AM CDT 6:45 PM CDT
Nautical Twilight 6:16 AM CDT 7:16 PM CDT
Astronomical Twilight 5:46 AM CDT 7:46 PM CDT
Moon 10:32 PM CDT (10/19) 12:41 PM CDT (10/19)
Length of Visible Light 11h 58m
Length of Day
11h 05m
Waning Gibbous, 69% of the Moon is Illuminated
Oct 19
Waning Gibbous
Oct 21
Last Quarter
Oct 27
New
Nov 4
First Quarter
Nov 12
Full

Hourly Weather History & Observations

Time (CDT) Temp. Windchill Dew Point Humidity Pressure Visibility Wind Dir Wind Speed Gust Speed Precip Events Conditions
12:56 AM 48.9 °F - 41.0 °F 74% 29.88 in 10.0 mi SSE 3.5 mph - N/A   Clear
1:56 AM 46.0 °F 42.5 °F 41.0 °F 83% 29.88 in 10.0 mi South 6.9 mph - N/A   Clear
2:56 AM 48.0 °F - 42.1 °F 80% 29.88 in 10.0 mi SSE 6.9 mph - N/A   Clear
3:56 AM 48.0 °F - 42.1 °F 80% 29.86 in 10.0 mi South 4.6 mph - N/A   Clear
4:56 AM 50.0 °F - 42.1 °F 74% 29.85 in 10.0 mi South 8.1 mph - N/A   Clear
5:56 AM 48.0 °F - 42.1 °F 80% 29.87 in 10.0 mi South 5.8 mph - N/A   Clear
6:56 AM 46.9 °F - 41.0 °F 80% 29.89 in 10.0 mi Calm Calm - N/A   Clear
7:56 AM 46.0 °F - 41.0 °F 83% 29.89 in 10.0 mi Calm Calm - N/A   Clear
9:56 AM 57.9 °F - 45.0 °F 62% 29.87 in 10.0 mi South 9.2 mph - N/A   Clear
10:56 AM 62.1 °F - 45.0 °F 53% 29.87 in 10.0 mi SSW 8.1 mph - N/A   Clear
11:56 AM 64.9 °F - 45.0 °F 48% 29.84 in 10.0 mi SSE 6.9 mph - N/A   Clear
12:56 PM 66.0 °F - 45.0 °F 47% 29.82 in 10.0 mi South 8.1 mph - N/A   Clear
1:56 PM 69.1 °F - 45.0 °F 42% 29.80 in 10.0 mi South 9.2 mph - N/A   Clear
2:56 PM 68.0 °F - 45.0 °F 43% 29.78 in 10.0 mi SSE 6.9 mph - N/A   Clear
3:56 PM 69.1 °F - 46.0 °F 44% 29.79 in 10.0 mi South 6.9 mph - N/A   Clear
4:56 PM 68.0 °F - 48.0 °F 49% 29.77 in 10.0 mi SSE 4.6 mph - N/A   Mostly Cloudy
5:56 PM 64.9 °F - 48.9 °F 56% 29.79 in 10.0 mi South 4.6 mph - 0.00 in   Clear
6:56 PM 62.1 °F - 48.9 °F 62% 29.81 in 10.0 mi South 3.5 mph - N/A   Scattered Clouds
7:56 PM 59.0 °F - 53.1 °F 81% 29.83 in 10.0 mi West 3.5 mph - 0.00 in   Overcast
8:56 PM 57.9 °F - 53.1 °F 84% 29.83 in 10.0 mi NNW 5.8 mph - 0.00 in   Partly Cloudy
9:56 PM 55.0 °F - 53.1 °F 93% 29.85 in 10.0 mi Calm Calm - N/A   Partly Cloudy
10:56 PM 53.1 °F - 52.0 °F 96% 29.85 in 10.0 mi Calm Calm - N/A   Scattered Clouds
11:56 PM 53.1 °F - 52.0 °F 96% 29.86 in 10.0 mi Calm Calm - N/A   Overcast